Weather History for KFDY - January, 2013

Change the Weather History Date:

Wednesday, January 9, 2013

  Actual Average Record
Temperature  
Mean Temperature 36 °F -  
Max Temperature 44 °F 28 °F 59 °F (1949)
Min Temperature 28 °F 15 °F -10 °F (1981)
Degree Days  
Heating Degree Days 29    
Moisture  
Dew Point 31 °F    
Average Humidity 77    
Maximum Humidity 85    
Minimum Humidity 65    
Precipitation  
Precipitation 0.00 in - - ()
Sea Level Pressure  
Sea Level Pressure 30.26 in    
Wind  
Wind Speed 13 mph (SW)    
Max Wind Speed 18 mph    
Max Gust Speed 28 mph    
Visibility 10 miles    
Events Rain    
Averages and records for this station are not official NWS values.
T = Trace of Precipitation, MM = Missing Value Source: NWS Daily Summary

Daily Weather History Graph

Daily Weather History Graph

Search for Another Location

Airport or City:

Trip Planner

Search our weather history database for the weather conditions in past years. The results will help you decide how hot, cold, wet, or windy it might be!

Date:

Astronomy

Jan. 09, 2013 Rise Set
Actual Time 7:59 AM EST 5:24 PM EST
Civil Twilight 7:28 AM EST 5:55 PM EST
Nautical Twilight 6:54 AM EST 6:29 PM EST
Astronomical Twilight 6:21 AM EST 7:02 PM EST
Moon 5:37 AM EST (1/9) 3:25 PM EST (1/9)
Length of Visible Light 10h 26m
Length of Day
9h 25m
Waning Crescent, 6% of the Moon is Illuminated
Jan 9
Waning Crescent
Jan 11
New
Jan 18
First Quarter
Jan 26
Full
Feb 3
Last Quarter

Hourly Weather History & Observations

Time (EST) Temp. Windchill Dew Point Humidity Pressure Visibility Wind Dir Wind Speed Gust Speed Precip Events Conditions
12:53 AM 28.9 °F 20.4 °F 25.0 °F 85% 30.19 in 8.0 mi South 9.2 mph - N/A   Clear
1:53 AM 32.0 °F 23.0 °F 27.0 °F 82% 30.17 in 10.0 mi South 11.5 mph - N/A   Clear
2:53 AM 32.0 °F 23.6 °F 27.0 °F 82% 30.16 in 10.0 mi South 10.4 mph - N/A   Partly Cloudy
3:53 AM 36.0 °F 28.5 °F 30.0 °F 79% 30.14 in 10.0 mi South 10.4 mph - N/A   Overcast
4:53 AM 39.0 °F 29.6 °F 30.9 °F 73% 30.13 in 10.0 mi South 18.4 mph - N/A   Overcast
5:53 AM 39.0 °F 31.0 °F 32.0 °F 76% 30.13 in 10.0 mi SSW 13.8 mph - N/A   Overcast
6:53 AM 43.0 °F 34.8 °F 33.1 °F 68% 30.14 in 10.0 mi SW 18.4 mph 24.2 mph 0.00 in Rain Light Rain
7:53 AM 41.0 °F 32.2 °F 33.1 °F 73% 30.16 in 10.0 mi SW 18.4 mph 27.6 mph 0.00 in   Overcast
8:53 AM 41.0 °F 32.5 °F 34.0 °F 76% 30.18 in 10.0 mi SW 17.3 mph 25.3 mph N/A   Clear
9:53 AM 41.0 °F 32.2 °F 34.0 °F 76% 30.21 in 10.0 mi WSW 18.4 mph 25.3 mph N/A   Clear
10:53 AM 41.0 °F 32.2 °F 34.0 °F 76% 30.23 in 10.0 mi WSW 18.4 mph 25.3 mph N/A   Clear
11:53 AM 41.0 °F 32.2 °F 34.0 °F 76% 30.24 in 10.0 mi WSW 18.4 mph 27.6 mph N/A   Clear
12:53 PM 42.1 °F 33.9 °F 35.1 °F 76% 30.23 in 10.0 mi WSW 17.3 mph 24.2 mph N/A   Clear
1:53 PM 43.0 °F 35.1 °F 34.0 °F 71% 30.24 in 10.0 mi WSW 17.3 mph 24.2 mph N/A   Clear
2:53 PM 44.1 °F 36.2 °F 33.1 °F 65% 30.27 in 10.0 mi WSW 18.4 mph 27.6 mph N/A   Clear
3:53 PM 43.0 °F 35.1 °F 33.1 °F 68% 30.29 in 10.0 mi WSW 17.3 mph 25.3 mph N/A   Clear
4:53 PM 41.0 °F 33.5 °F 33.1 °F 73% 30.31 in 10.0 mi WSW 13.8 mph 23.0 mph N/A   Clear
5:53 PM 39.0 °F 31.0 °F 32.0 °F 76% 30.33 in 10.0 mi WSW 13.8 mph - N/A   Clear
6:53 PM 37.9 °F 30.0 °F 30.9 °F 76% 30.36 in 10.0 mi WSW 12.7 mph - N/A   Clear
7:53 PM 37.0 °F 29.8 °F 30.9 °F 79% 30.39 in 10.0 mi WSW 10.4 mph - N/A   Clear
8:53 PM 36.0 °F 28.5 °F 30.9 °F 82% 30.41 in 10.0 mi West 10.4 mph - N/A   Clear
9:53 PM 35.1 °F 28.6 °F 30.0 °F 82% 30.43 in 10.0 mi West 8.1 mph - N/A   Clear
10:53 PM 33.1 °F 26.9 °F 28.9 °F 85% 30.46 in 10.0 mi WSW 6.9 mph - N/A   Clear
11:53 PM 30.9 °F 25.2 °F 27.0 °F 85% 30.50 in 10.0 mi WSW 5.8 mph - N/A   Clear